Weather History for Shannon, Ireland

Change the Weather History Date:

Thursday, August 1, 2013

  Actual Average Record
Temperature  
Mean Temperature 65 °F -  
Max Temperature 68 °F 67 °F 75 °F (2004)
Min Temperature 62 °F 53 °F 46 °F (2005)
Growing Degree Days 15 (Base 50)    
Moisture  
Dew Point 64 °F    
Average Humidity 94    
Maximum Humidity 100    
Minimum Humidity 82    
Precipitation  
Precipitation 0.12 in 0.11 in - ()
Sea Level Pressure  
Sea Level Pressure 29.53 in    
Wind  
Wind Speed 11 mph ()    
Max Wind Speed 22 mph    
Max Gust Speed -    
Visibility 5.9 miles    
Events Rain    
Averages and records for this station are not official NWS values.
T = Trace of Precipitation, MM = Missing Value Source: Averaged Metar Reports

Daily Weather History Graph

Daily Weather History Graph

Search for Another Location

Airport:

Trip Planner

Search our weather history database for the weather conditions in past years. The results will help you decide how hot, cold, wet, or windy it might be!

Date:

Astronomy

Aug. 01, 2013 Rise Set
Actual Time 5:54 AM IST 9:28 PM IST
Civil Twilight 5:12 AM IST 10:10 PM IST
Nautical Twilight 4:14 AM IST 11:07 PM IST
Astronomical Twilight 2:44 AM IST 12:34 AM IST
Moon 1:19 AM IST (8/1) 5:30 PM IST (8/1)
Length of Visible Light 16h 57m
Length of Day
15h 33m
Waning Crescent, 25% of the Moon is Illuminated
Aug 1
Waning Crescent
Aug 6
New
Aug 14
First Quarter
Aug 21
Full
Aug 28
Last Quarter

Hourly Weather History & Observations

Time (IST) Temp. Dew Point Humidity Pressure Visibility Wind Dir Wind Speed Gust Speed Precip Events Conditions
12:00 AM 66.2 °F 64.4 °F 94% 29.65 in 6.2 mi SSE 9.2 mph - N/A   Light Drizzle
12:30 AM 66.2 °F 64.4 °F 94% 29.62 in 6.2 mi SSE 11.5 mph - N/A   Mostly Cloudy
1:00 AM 65 °F 64 °F 96% 29.65 in 9 mi SSE 13.4 mph - - Rain Light Rain
1:00 AM 66.2 °F 64.4 °F 94% 29.62 in 6.2 mi SSE 12.7 mph - N/A Rain Light Rain
1:30 AM 64.4 °F 64.4 °F 100% 29.62 in 6.2 mi SSE 10.4 mph - N/A Rain Light Rain
2:00 AM 64.4 °F 64.4 °F 100% 29.62 in 6.2 mi SSE 9.2 mph - N/A Rain Light Rain
2:30 AM 64.4 °F 64.4 °F 100% 29.62 in 6.2 mi SE 10.4 mph - N/A Rain Light Rain
3:00 AM 64.4 °F 64.4 °F 100% 29.62 in 6.2 mi SSE 8.1 mph - N/A Rain Light Rain
3:30 AM 64.4 °F 64.4 °F 100% 29.59 in 6.2 mi SSE 9.2 mph - N/A   Mostly Cloudy
4:00 AM 64.4 °F 62.6 °F 94% 29.59 in 6.2 mi SSE 6.9 mph - N/A   Mostly Cloudy
4:30 AM 64.4 °F 62.6 °F 94% 29.59 in 6.2 mi SSE 8.1 mph - N/A   Mostly Cloudy
5:00 AM 64.4 °F 62.6 °F 94% 29.59 in 6.2 mi SSE 8.1 mph - N/A   Mostly Cloudy
5:30 AM 64.4 °F 62.6 °F 94% 29.56 in 6.2 mi SE 6.9 mph - N/A   Mostly Cloudy
6:00 AM 64.4 °F 62.6 °F 94% 29.56 in 6.2 mi SE 6.9 mph - N/A   Mostly Cloudy
6:30 AM 64.4 °F 62.6 °F 94% 29.56 in 6.2 mi East 6.9 mph - N/A   Mostly Cloudy
7:00 AM 64 °F 64 °F 99% 29.59 in 12 mi East 8.9 mph - -   Partly Cloudy
7:00 AM 64.4 °F 64.4 °F 100% 29.56 in 6.2 mi East 8.1 mph - N/A   Mostly Cloudy
7:30 AM 64.4 °F 64.4 °F 100% 29.56 in 6.2 mi ESE 8.1 mph - N/A   Mostly Cloudy
8:00 AM 66.2 °F 64.4 °F 94% 29.56 in 6.2 mi SE 11.5 mph - N/A   Mostly Cloudy
8:30 AM 66.2 °F 64.4 °F 94% 29.56 in 6.2 mi SE 10.4 mph - N/A   Mostly Cloudy
9:00 AM 66.2 °F 64.4 °F 94% 29.56 in 6.2 mi ESE 9.2 mph - N/A   Mostly Cloudy
9:30 AM 66.2 °F 64.4 °F 94% 29.56 in 6.2 mi SE 9.2 mph - N/A   Mostly Cloudy
10:00 AM 66.2 °F 64.4 °F 94% 29.56 in 6.2 mi SE 9.2 mph - N/A Rain Light Rain
10:30 AM 66.2 °F 64.4 °F 94% 29.56 in 6.2 mi SE 8.1 mph - N/A   Mostly Cloudy
11:00 AM 68.0 °F 64.4 °F 88% 29.56 in - SE 10.4 mph - N/A   Mostly Cloudy
11:30 AM 68.0 °F 66.2 °F 94% 29.53 in 5.0 mi SE 10.4 mph - N/A Rain Light Rain
12:00 PM 66.2 °F 66.2 °F 100% 29.53 in 3.7 mi SE 10.4 mph - N/A Rain Light Rain
12:30 PM 66.2 °F 64.4 °F 94% 29.53 in 3.7 mi SSE 12.7 mph - N/A Rain Light Rain
1:00 PM 66 °F 64 °F 93% 29.55 in 4 mi SSE 15.7 mph - - Rain Light Rain
1:00 PM 66.2 °F 64.4 °F 94% 29.53 in 4.3 mi SSE 15.0 mph - N/A Rain Light Rain
1:30 PM 64.4 °F 64.4 °F 100% 29.53 in 1.9 mi SSE 16.1 mph - N/A Rain Light Rain
2:00 PM 64.4 °F 64.4 °F 100% 29.50 in 3.1 mi SE 10.4 mph - N/A Rain Light Rain
2:30 PM 64.4 °F 64.4 °F 100% 29.50 in 2.5 mi SSE 12.7 mph - N/A Rain Light Rain
3:00 PM 64.4 °F 64.4 °F 100% 29.50 in 2.5 mi SE 15.0 mph - N/A Rain Light Rain
3:30 PM 66.2 °F 64.4 °F 94% 29.50 in 6.2 mi SE 20.7 mph - N/A   Scattered Clouds
4:00 PM 66.2 °F 64.4 °F 94% 29.47 in 6.2 mi SE 15.0 mph - N/A Rain Light Rain Showers
4:30 PM 66.2 °F 66.2 °F 100% 29.47 in 6.2 mi SE 17.3 mph - N/A   Light Drizzle
5:00 PM 68.0 °F 66.2 °F 94% 29.47 in 6.2 mi ESE 19.6 mph - N/A   Mostly Cloudy
5:30 PM 68.0 °F 66.2 °F 94% 29.44 in 6.2 mi SE 19.6 mph - N/A   Mostly Cloudy
6:00 PM 68.0 °F 66.2 °F 94% 29.44 in 6.2 mi SE 17.3 mph - N/A   Mostly Cloudy
6:30 PM 68.0 °F 66.2 °F 94% 29.44 in 6.2 mi SE 16.1 mph - N/A   Mostly Cloudy
7:00 PM 68.0 °F 64.4 °F 88% 29.44 in 6.2 mi SE 17.3 mph - N/A   Mostly Cloudy
7:30 PM 68.0 °F 66.2 °F 94% 29.42 in 6.2 mi SE 18.4 mph - N/A   Mostly Cloudy
8:00 PM 68.0 °F 64.4 °F 88% 29.42 in 6.2 mi SE 19.6 mph - N/A   Mostly Cloudy
8:30 PM 68.0 °F 62.6 °F 83% 29.42 in 6.2 mi SSE 21.9 mph - N/A   Partly Cloudy
9:00 PM 68.0 °F 62.6 °F 83% 29.42 in 6.2 mi SE 18.4 mph - N/A   Mostly Cloudy
9:30 PM 66.2 °F 60.8 °F 83% 29.42 in 6.2 mi South 18.4 mph - N/A   Scattered Clouds
10:00 PM 64.4 °F 59.0 °F 83% 29.42 in 6.2 mi SSE 16.1 mph - N/A   Partly Cloudy
10:30 PM 64.4 °F 59.0 °F 83% 29.42 in 6.2 mi SSE 13.8 mph - N/A   Partly Cloudy
11:00 PM 62.6 °F 57.2 °F 82% 29.44 in 6.2 mi SSE 15.0 mph - N/A   Scattered Clouds
11:30 PM 62.6 °F 57.2 °F 82% 29.44 in 6.2 mi SSE 16.1 mph - N/A   Partly Cloudy